Wind_Speed
16 14 13 12 10 8 7 7 8 9 10 12 14 15 17 19 21 23 25 25 25 27 28 29 29 30 31 32 33 32 31 31 31 31 30 30 30 30 29 28 29 30 30
17 16 15 15 12 10 9 7 6 6 6 7 8 10 12 14 16 18 20 22 22 23 24 25 26 27 28 28 29 29 29 29 28 29 29 28 27 26 26 26 26 28 29
19 17 17 16 14 13 11 10 8 6 5 5 6 7 8 11 12 14 16 18 19 19 21 23 24 25 26 26 27 28 28 28 28 28 27 27 27 27 26 26 25 26 27
20 19 18 18 16 15 14 12 10 9 7 6 5 6 7 8 9 11 13 14 15 17 19 20 21 22 23 24 25 26 27 27 28 28 28 27 26 25 25 25 25 25 26
22 21 20 18 18 17 15 14 12 11 9 8 7 6 5 6 8 9 11 12 14 16 17 19 20 20 21 21 22 23 24 25 26 26 26 26 25 24 24 23 23 23 24
22 22 21 20 19 18 18 16 14 13 12 10 9 7 6 6 7 7 9 11 12 13 14 15 16 17 18 19 20 22 22 22 22 23 23 23 23 22 23 23 23 21 21
22 22 22 21 21 20 19 18 17 16 14 12 11 10 8 6 5 5 6 7 8 10 11 12 13 15 15 16 17 18 19 20 20 21 20 20 19 20 21 20 20 19 19
23 23 22 22 21 21 21 19 18 17 16 14 13 11 10 9 6 6 4 3 4 5 7 8 10 11 12 13 13 14 15 16 17 17 18 17 17 17 16 15 15 15 15
23 23 23 22 22 22 22 21 19 18 17 17 15 14 12 11 9 8 6 4 3 3 4 5 5 6 7 8 10 11 13 15 15 14 14 13 13 12 12 12 12 12 12
23 23 23 23 23 23 23 22 21 20 19 18 17 16 14 13 12 10 8 6 4 2 2 2 3 2 3 4 6 7 9 10 11 11 11 11 11 10 10 10 10 10 10
23 24 23 23 23 23 23 23 22 21 20 19 18 18 17 15 14 13 11 8 6 5 4 2 1 1 1 1 2 4 5 6 7 8 9 9 9 10 9 9 10 10 10
22 23 23 23 23 23 22 22 22 22 21 20 19 18 18 17 15 14 12 11 9 7 6 4 3 2 1 1 1 2 3 5 5 6 8 8 9 9 9 9 8 9 9
21 22 22 22 22 22 22 22 22 21 21 20 19 19 18 17 16 15 13 12 10 9 7 6 5 4 3 3 2 2 2 3 4 5 6 7 7 8 7 8 8 8 8
20 20 20 21 21 21 22 21 21 21 21 21 19 19 18 18 17 16 14 13 12 11 10 9 8 7 5 5 4 4 4 4 4 4 5 5 6 6 6 6 6 6 6
18 18 19 19 20 20 21 21 21 21 21 21 20 20 19 18 18 17 16 14 13 12 11 10 9 8 7 7 6 5 5 5 5 5 4 4 4 4 4 4 4 5 4
16 17 17 18 18 18 19 20 20 20 20 20 20 20 19 19 18 17 16 15 14 13 12 11 10 9 9 8 8 7 6 6 5 5 4 4 3 3 3 3 3 3 3
14 15 15 16 16 16 17 18 18 19 19 19 19 19 19 19 18 17 17 16 15 15 13 12 12 11 10 9 9 8 7 6 6 5 4 4 3 3 2 2 2 2 2
13 13 14 14 15 15 15 15 16 16 17 17 17 18 18 18 18 17 17 16 16 15 14 13 12 11 11 10 10 9 8 7 6 5 4 4 3 3 2 2 2 1 1
11 12 12 12 13 13 14 14 14 14 15 15 16 16 16 16 16 16 16 15 15 14 14 13 13 12 11 10 9 9 8 7 7 6 5 4 4 3 3 2 2 1 0
11 11 11 11 11 12 12 12 13 13 13 13 13 14 14 14 14 14 14 14 13 12 12 12 12 11 11 10 9 9 8 8 7 6 5 4 4 3 2 2 2 1 1
11 11 11 11 11 11 11 11 11 11 11 11 11 12 12 12 12 12 12 12 11 11 11 10 10 10 9 9 9 8 7 7 6 5 4 4 3 3 3 2 2 2 1
12 12 12 12 11 11 11 11 11 11 10 10 10 10 10 10 9 9 9 9 9 9 9 8 8 8 7 7 7 6 6 5 5 4 3 3 3 3 3 2 2 2 2
15 14 13 13 13 12 12 12 11 11 11 10 10 10 9 9 8 8 8 7 7 6 6 6 5 5 5 5 5 4 4 4 4 4 3 3 3 3 3 3 3 3 3
17 17 16 15 15 14 14 14 13 13 12 12 11 11 10 9 9 8 8 7 7 7 6 5 5 4 4 4 4 4 4 4 4 4 4 4 4 4 4 4 4 4 5
20 20 19 18 17 17 16 16 15 15 15 14 13 13 12 12 11 10 10 9 9 9 8 8 7 7 7 6 6 6 6 6 6 6 6 6 6 6 6 6 6 7 7
24 23 23 22 21 20 20 19 18 18 17 17 17 16 16 15 14 14 13 13 12 12 12 11 11 11 11 11 11 10 10 10 10 10 10 10 10 9 9 9 10 10 11
Wind_Direction
14 13 10 4 356 343 327 308 293 286 275 261 255 253 250 248 247 247 246 246 247 247 248 248 249 249 247 247 248 248 250 251 251 251 253 254 256 258 258 258 258 260 259
22 23 21 18 17 14 4 347 331 312 304 285 271 257 252 248 246 246 247 248 247 247 247 246 247 247 246 246 248 250 249 250 252 252 251 252 255 257 258 259 261 260 258
27 27 26 24 22 20 16 12 3 351 337 319 301 273 259 254 253 250 249 247 246 247 248 249 249 249 247 247 250 249 249 250 252 252 251 252 254 254 257 259 258 258 257
28 28 28 27 25 22 20 18 15 8 0 350 330 301 273 267 263 257 253 251 250 252 253 252 252 250 248 248 248 247 248 250 250 250 250 251 253 254 256 258 257 257 258
29 29 27 26 26 25 24 20 16 11 6 359 350 335 304 283 274 265 263 259 256 256 255 255 253 252 249 248 249 248 250 249 247 249 249 252 253 253 256 255 255 257 258
28 28 27 27 26 26 24 23 20 18 15 10 7 360 342 319 298 281 270 266 260 258 259 257 255 254 253 252 250 250 250 249 248 248 248 249 251 252 253 253 252 254 256
27 28 28 29 29 28 27 26 26 25 23 21 18 14 4 348 334 316 295 274 268 263 260 256 254 254 258 255 251 248 246 246 246 246 246 247 249 248 249 248 247 250 253
28 28 28 27 28 27 26 27 28 29 29 27 24 23 20 15 12 4 345 311 289 273 261 254 252 250 246 244 243 244 241 237 237 239 241 242 244 247 246 244 245 245 246
27 28 28 28 28 28 28 29 31 32 32 32 32 32 31 30 30 23 12 354 330 306 275 254 245 239 231 230 232 235 234 233 233 232 232 233 234 237 238 238 238 242 246
27 28 29 29 30 30 31 32 33 34 34 35 35 35 34 33 32 29 25 23 19 11 337 298 256 243 229 240 234 233 229 226 228 227 227 227 227 228 226 226 230 237 243
28 29 29 30 31 31 32 33 34 34 35 35 36 36 35 34 34 32 29 32 37 37 31 18 337 279 234 258 238 221 214 210 211 219 220 216 214 213 217 225 234 241 248
27 28 29 29 30 31 32 32 33 34 34 34 35 35 34 34 35 35 36 37 39 44 48 53 69 88 104 129 173 195 198 197 200 199 201 204 208 214 225 233 240 245 249
26 27 28 29 29 30 30 31 31 32 33 34 35 35 35 34 34 34 36 40 47 48 50 57 70 84 89 101 128 152 157 170 178 180 184 192 200 209 220 229 237 243 250
24 25 26 27 28 29 30 30 31 32 33 33 34 34 35 36 35 36 39 44 49 54 59 64 70 77 81 86 91 94 103 123 142 153 164 179 192 205 216 227 235 242 247
21 22 23 24 26 27 28 29 31 32 33 33 34 34 34 35 36 38 42 46 49 53 57 61 64 69 74 82 89 93 95 102 109 120 137 156 179 195 205 217 227 233 238
16 19 21 22 23 25 26 27 28 29 31 32 33 34 36 36 38 40 42 46 49 52 55 59 64 70 74 80 85 90 94 97 103 109 113 120 131 151 174 190 201 210 216
9 12 15 18 19 20 22 24 26 27 29 30 31 33 35 37 40 43 44 48 52 55 57 59 62 67 71 76 81 85 89 94 98 100 99 102 107 115 125 142 161 185 201
359 3 7 10 13 15 17 18 20 23 26 28 29 31 34 37 40 43 45 48 51 54 57 59 62 64 67 71 74 77 80 85 90 89 90 93 96 102 109 116 127 146 185
346 350 355 360 4 7 10 13 15 18 21 24 26 28 31 34 37 41 43 46 50 53 55 58 61 63 65 68 71 74 75 79 83 86 86 86 89 92 90 86 82 88 167
333 338 342 347 352 356 360 4 8 11 14 17 20 23 26 29 33 36 39 43 46 49 52 54 58 61 63 64 67 70 72 75 77 79 80 80 79 73 59 44 36 30 3
317 322 328 333 338 343 347 350 354 358 3 6 10 13 16 20 24 29 32 36 40 43 46 50 53 56 59 61 63 66 66 65 64 65 65 61 56 44 29 21 18 4 346
301 305 310 315 320 325 331 337 341 344 346 351 355 358 2 6 10 14 19 24 28 32 37 41 45 47 49 52 55 56 53 48 45 43 37 29 20 12 4 354 341 333 326
290 293 297 300 303 308 313 317 322 326 330 333 337 340 343 346 349 352 355 0 5 9 15 21 27 32 35 32 32 31 29 26 23 18 12 3 354 348 343 335 326 320 316
283 285 287 290 293 295 298 302 306 309 312 315 318 321 323 324 325 326 327 329 332 334 335 336 337 338 338 339 339 340 341 342 341 337 334 331 326 322 319 315 312 311 310
276 278 281 283 285 287 289 291 294 297 300 302 304 305 306 307 308 307 308 309 308 308 307 307 306 306 304 303 304 305 306 307 309 309 307 305 304 302 299 296 297 298 299
272 274 275 277 279 280 282 284 286 287 289 291 293 295 296 297 297 296 296 295 295 295 294 294 293 292 291 290 289 288 288 289 289 291 291 291 291 291 289 287 288 289 291
Height
5780 5776 5774 5771 5769 5768 5767 5767 5767 5767 5767 5767 5768 5769 5771 5773 5775 5778 5780 5782 5785 5788 5791 5794 5797 5800 5803 5807 5809 5812 5815 5818 5820 5823 5825 5827 5829 5831 5833 5834 5836 5837 5839
5782 5778 5775 5773 5770 5769 5767 5766 5765 5765 5764 5764 5765 5765 5766 5768 5770 5772 5774 5776 5779 5781 5784 5787 5790 5792 5796 5799 5801 5805 5807 5810 5812 5815 5817 5819 5821 5823 5825 5827 5828 5829 5831
5784 5781 5778 5775 5772 5770 5768 5766 5765 5764 5763 5762 5762 5762 5763 5765 5766 5767 5769 5771 5773 5775 5778 5780 5783 5786 5789 5792 5794 5797 5800 5802 5805 5807 5810 5812 5814 5816 5818 5820 5821 5822 5823
5788 5784 5781 5778 5775 5772 5770 5767 5765 5764 5763 5762 5761 5761 5761 5762 5763 5763 5765 5767 5769 5770 5772 5774 5777 5779 5782 5784 5787 5790 5792 5795 5797 5799 5802 5805 5807 5809 5811 5812 5814 5815 5817
5791 5787 5783 5780 5777 5774 5771 5769 5766 5764 5763 5761 5760 5760 5760 5760 5760 5761 5762 5763 5764 5766 5767 5769 5771 5773 5775 5778 5780 5782 5785 5787 5790 5792 5795 5797 5800 5802 5804 5806 5807 5808 5810
5794 5790 5786 5783 5780 5776 5773 5770 5768 5765 5763 5762 5760 5759 5759 5758 5758 5758 5758 5759 5760 5761 5763 5764 5766 5768 5769 5771 5774 5776 5779 5781 5784 5786 5788 5791 5793 5796 5798 5799 5801 5802 5804
5797 5793 5790 5786 5783 5779 5776 5773 5770 5767 5765 5762 5761 5759 5758 5757 5756 5756 5756 5756 5757 5758 5759 5760 5762 5763 5764 5766 5768 5771 5773 5776 5779 5781 5783 5785 5788 5789 5791 5793 5795 5797 5799
5801 5797 5793 5789 5786 5782 5779 5775 5772 5769 5766 5764 5762 5760 5758 5757 5756 5755 5755 5755 5755 5755 5756 5757 5758 5759 5760 5762 5764 5767 5769 5771 5773 5775 5778 5780 5783 5784 5786 5788 5790 5792 5794
5804 5800 5796 5792 5789 5785 5781 5778 5774 5771 5769 5766 5764 5762 5760 5758 5757 5756 5755 5754 5754 5754 5755 5755 5756 5757 5758 5759 5761 5763 5765 5767 5769 5771 5774 5776 5778 5780 5782 5784 5786 5788 5790
5808 5804 5800 5796 5792 5789 5785 5781 5777 5774 5771 5769 5766 5764 5762 5760 5759 5757 5755 5754 5754 5754 5754 5754 5755 5756 5757 5758 5759 5761 5762 5764 5766 5768 5770 5773 5775 5777 5779 5782 5784 5786 5787
5812 5808 5804 5800 5796 5792 5789 5785 5781 5778 5775 5772 5769 5767 5765 5763 5760 5759 5757 5755 5755 5755 5754 5754 5755 5756 5756 5757 5758 5759 5760 5762 5764 5766 5768 5770 5773 5775 5777 5779 5781 5783 5784
5815 5811 5807 5804 5800 5796 5793 5789 5786 5782 5779 5776 5773 5770 5768 5765 5763 5761 5759 5757 5756 5756 5755 5755 5755 5756 5756 5757 5757 5758 5759 5761 5762 5764 5766 5768 5771 5773 5775 5777 5779 5780 5782
5819 5815 5811 5808 5804 5800 5796 5793 5790 5786 5783 5780 5777 5774 5771 5768 5766 5763 5761 5759 5758 5757 5757 5756 5756 5756 5757 5757 5758 5759 5759 5760 5761 5763 5765 5767 5769 5772 5774 5775 5777 5778 5779
5822 5818 5815 5811 5808 5804 5800 5797 5793 5790 5787 5784 5780 5777 5775 5772 5769 5766 5764 5762 5761 5760 5759 5758 5758 5758 5758 5759 5759 5760 5761 5761 5762 5763 5765 5767 5769 5770 5772 5774 5775 5776 5777
5825 5821 5818 5814 5811 5808 5804 5801 5797 5794 5791 5788 5784 5781 5778 5775 5773 5770 5767 5765 5764 5762 5761 5761 5760 5760 5760 5761 5761 5761 5762 5763 5763 5764 5766 5767 5768 5770 5771 5772 5774 5775 5776
5827 5824 5820 5817 5814 5811 5807 5804 5801 5798 5794 5791 5788 5785 5782 5779 5776 5774 5771 5769 5767 5766 5765 5764 5763 5763 5763 5763 5763 5764 5764 5765 5765 5766 5767 5768 5769 5770 5771 5772 5773 5774 5775
5828 5825 5822 5819 5816 5813 5810 5807 5804 5801 5798 5795 5791 5788 5785 5783 5780 5777 5775 5773 5771 5769 5768 5767 5767 5766 5766 5766 5766 5766 5767 5767 5767 5768 5769 5769 5770 5771 5772 5772 5773 5774 5774
5829 5826 5823 5821 5818 5815 5812 5809 5807 5804 5801 5798 5795 5792 5789 5786 5784 5781 5779 5777 5775 5774 5773 5772 5771 5770 5769 5769 5769 5769 5769 5769 5770 5770 5770 5771 5771 5772 5772 5773 5773 5774 5774
5828 5826 5824 5821 5819 5816 5814 5811 5808 5806 5803 5801 5798 5795 5793 5790 5788 5785 5783 5781 5779 5778 5777 5776 5775 5774 5773 5772 5772 5772 5772 5772 5772 5772 5772 5772 5773 5773 5773 5773 5773 5774 5774
5827 5825 5823 5821 5819 5817 5814 5812 5810 5807 5805 5803 5800 5798 5795 5793 5791 5789 5787 5785 5783 5782 5780 5779 5778 5777 5776 5776 5775 5775 5774 5774 5774 5774 5774 5774 5774 5774 5774 5774 5774 5774 5774
5826 5824 5822 5820 5818 5816 5814 5812 5810 5808 5806 5804 5802 5799 5797 5795 5793 5791 5789 5788 5786 5784 5783 5782 5781 5780 5779 5778 5778 5777 5777 5776 5776 5776 5775 5775 5775 5775 5775 5774 5774 5774 5774
5823 5821 5820 5818 5817 5815 5813 5811 5809 5807 5806 5804 5802 5800 5798 5796 5794 5793 5791 5789 5788 5786 5785 5784 5783 5782 5781 5780 5780 5779 5778 5778 5777 5777 5776 5776 5776 5775 5775 5775 5774 5774 5774
5819 5818 5817 5815 5814 5813 5811 5810 5808 5806 5805 5803 5801 5800 5798 5796 5795 5793 5792 5790 5789 5788 5786 5785 5784 5783 5782 5782 5781 5780 5779 5779 5778 5777 5777 5776 5776 5775 5775 5775 5774 5774 5773
5814 5813 5812 5811 5810 5809 5808 5807 5805 5804 5802 5801 5800 5798 5797 5795 5794 5793 5791 5790 5789 5787 5786 5785 5784 5783 5783 5782 5781 5780 5779 5779 5778 5777 5777 5776 5775 5775 5774 5774 5773 5773 5772
5808 5807 5807 5806 5805 5804 5803 5802 5801 5800 5799 5798 5797 5795 5794 5793 5792 5791 5789 5788 5787 5786 5785 5784 5783 5782 5781 5780 5780 5779 5778 5778 5777 5776 5775 5775 5774 5774 5773 5772 5772 5771 5771
5801 5800 5800 5800 5799 5799 5798 5797 5796 5795 5794 5793 5792 5791 5790 5789 5788 5787 5786 5785 5784 5783 5782 5781 5780 5780 5779 5778 5777 5777 5776 5775 5775 5774 5773 5772 5772 5771 5770 5770 5769 5769 5768